STARLINK-11597, 63115

Orbit data source: Space-Track

STARLINK-11597, 63115 is a payload satellite owned by SpaceX/Seattle (US) in LEO that was launched on Thu, 27 Feb 2025 UTC via an FALCON 9 launch vehicle from the Air Force Eastern Test Range (AFETR). Payload-class satellites include a variety of spacecraft equipped with specific instruments for various scientific and technological missions. These include communications satellites like Starlink; space stations such as the ISS; scientific satellites like the Hubble; Earth observation satellites from companies like Planet Labs, Umbra, and HawkEye 360; GPS; miniature CubeSats for education and research; and military/defense satellites.

Loading next visibility...
Identifier
63115, 2025-039M
Orbit
LEO
Country
Flag of USUS
Related business
Manufacturer
SpaceX/Seattle
Mission
Operational Commercial Communications
Bus & Motor
STARLINK V2MD, Unknown motor
Mass
960 kg wet, ~910 kg dry
Launch date (UTC)
2025-02-27 (1 year ago)
Launch vehicle
FALCON 9
Launch site
Air Force Eastern Test Range (AFETR)
Object type
Payload
Rocket body
Debris
Shape & HBR
Box + 2 Pan, 18.1 m
Radar Cross Section
36.964 m², Large (>1 m²)

Expand to show TLE details & history
Last TLE update: 14 hours ago

TLE from 14 hours ago
0 STARLINK-11597
1 63115U 25039M   26119.84071130  .00348360  00000-0  25994-2 0  9993
2 63115  42.9995 288.2089 0001306 263.7705  96.3014 15.70901288 67662
Epoch: 2026-04-29T20:10Z
TLE epoch observation values (Epoch: 2026-04-29T20:10:37.456Z)
Latitude
-0°
Longitude
127.75694°
Altitude
356.188 km
Speed
7.697 km/s
True Right ascension
19h 12m 50s
True Declination
0° 00' 00"
Sunlit
Object was in daylight at epoch
Visualization orbit readout
Latitude
Unknown
Longitude
Unknown
Altitude
Unknown
Speed
Unknown
Apparent Right ascension
Unknown
Apparent Declination
Unknown
Sunlit
N/A
Visualization observer readout
Local Sidereal Time
17:43:38
Azimuth
Unknown
Elevation
Unknown
Doppler factor
Unknown
Orbital elements
Apogee altitude
359.181 km
Perigee altitude
357.422 km
Semi-major axis
6,736.439 km
Eccentricity
0.00013
Inclination
42.9995°
RAAN
288.2089°
Arg. of periapsis
263.7705°
True anomaly
96.31627°
Mean anomaly
96.3014°
Eccentric anomaly
96.30884°
Mean motion
3.92552 °/min
Orbital period
91.71 mins
BSTAR
0.0025994
Loading maneuver chart data...
Computing Atmospheric mass density...
Loading historical data...
Loading historical data...
Loading historical data...
Loading historical data...
Loading historical data...
Loading historical data...
Loading historical data...

Documentation

Showing up to 5 results
|